SCP
0 0 0 -0 -0 -0 -0 -0 -0 0 0 0 0 0 0 -0 -0 -0 -0 -0 -0 -0 -0 -0 -0 -0 -0 -0 -0 0 0 -0 -0 0 -0 -0 -0 -0 -0 0 0 -0 -0
-0 0 0 -0 -0 -0 -0 -0 -0 0 0 0 -0 -0 -0 -0 -0 -0 -0 -0 -0 -0 -0 -0 -0 -0 -0 -0 0 0 0 0 -0 -0 0 0 0 0 -0 -0 -0 0 0
-0 0 0 -0 -0 -0 -0 -0 -0 -0 -0 -0 -0 -0 -0 -0 -0 -0 -0 -0 -0 -0 -0 -0 -0 -0 -0 -0 0 -0 -0 -0 0 0 0 0 0 0 0 0 0 0 0
-0 0 0 -0 -0 -0 -0 -0 -0 0 -0 -0 -0 -0 -0 -0 -0 -0 -0 -0 -0 -0 -0 -0 -0 -0 -0 -0 -0 -0 -0 0 0 0 0 0 0 0 0 0 0 0 0
-0 -0 0 0 -0 0 0 -0 -0 -0 -0 -0 -0 -0 -0 -0 -0 -0 -0 -0 -0 -0 -0 0 -0 0 0 0 0 0 0 0 0 0 0 0 0 0 0 0 0 0 0
-0 -0 -0 -0 -0 -0 -0 -0 -0 -0 -0 -0 -0 -0 -0 -0 -0 -0 0 0 0 0 0 0 0 0 0 0 0 0 0 0 0 0 0 0 0 0 0 0 0 0 0
-0 -0 -0 -0 -0 -0 -0 -0 -0 -0 -0 -0 0 0 0 0 0 0 0 0 0 0 0 0 0 0 0 0 0 0 0 0 0 0 0 0 0 0 0 0 0 0 0
-0 -0 -0 -0 -0 -0 -0 -0 -0 0 0 0 0 0 0 0 0 0 0 0 0 0 0 0 0 0 0 0 0 0 0 0 0 0 0 0 0 0 0 0 0 0 0
0 0 0 0 0 0 0 0 0 0 0 0 0 0 0 0 0 0 0 0 0 0 0 0 0 0 0 0 0 0 0 0 0 0 0 0 0 0 0 0 0 0 0
0 0 0 0 0 0 0 0 0 0 0 0 0 0 0 0 0 0 0 0 0 0 0 0 0 0 0 0 0 0 0 0 0 0 0 0 0 0 0 0 0 0 0
0 0 0 0 0 0 0 -0 0 0 0 0 0 0 0 -0 0 0 0 0 0 0 0 0 0 0 0 0 0 0 0 0 0 0 0 0 0 0 0 0 0 0 0
0 0 0 0 0 0 0 0 -0 0 -0 0 0 0 -0 0 0 0 0 0 0 0 0 0 0 0 0 0 0 0 0 0 0 0 0 0 0 0 0 0 0 0 0
0 0 0 0 0 0 0 0 0 0 0 0 0 0 0 0 0 0 0 0 0 0 0 0 0 0 0 0 0 0 0 0 0 0 0 0 0 0 0 0 0 0 0
0 0 -0 0 0 0 0 0 0 0 0 0 0 0 0 0 0 0 0 0 0 0 0 0 0 0 0 0 0 0 0 0 0 0 0 0 0 0 0 0 0 0 0
0 0 0 0 0 0 0 0 0 0 0 0 0 0 0 0 0 0 0 0 0 0 0 0 0 0 0 0 0 0 0 0 0 0 0 0 0 0 0 0 0 0 0
0 0 0 0 0 0 0 0 0 0 0 0 0 0 0 0 0 0 0 0 0 0 0 0 0 0 0 0 0 0 0 0 0 0 0 0 0 0 0 0 0 0 0
0 0 0 0 0 0 0 0 0 0 0 0 0 0 0 0 0 0 0 0 0 0 0 0 0 0 0 0 0 0 0 0 0 0 0 0 0 0 0 0 0 0 0
0 0 0 0 0 0 0 0 0 0 0 0 0 0 0 0 0 0 0 0 0 0 0 0 0 0 0 0 0 0 0 0 0 0 0 0 0 0 0 0 0 0 0
0 0 0 0 0 0 0 0 0 0 0 0 0 0 0 0 0 0 0 0 0 0 0 0 0 0 0 0 0 0 0 0 0 0 0 0 0 0 0 0 0 0 0
0 0 0 0 0 0 0 0 0 0 0 0 0 0 0 0 0 0 0 0 0 0 0 0 0 0 0 0 0 0 0 0 0 0 0 0 0 0 0 0 0 0 0
0 0 0 0 0 0 0 0 0 0 0 0 0 0 0 0 0 0 0 0 0 0 0 0 0 0 0 0 0 0 0 0 0 0 0 0 0 0 0 0 0 0 0
0 0 0 0 0 0 0 0 0 0 0 0 0 0 0 0 0 0 0 0 0 0 0 0 0 0 0 0 0 0 0 0 0 0 0 0 0 0 0 0 0 0 0
0 0 0 0 0 0 0 0 0 0 0 0 0 0 0 0 0 0 0 0 0 0 0 0 0 0 0 0 0 0 0 0 0 0 0 0 0 0 0 0 0 0 0
0 0 0 0 0 0 0 0 0 0 0 0 0 0 0 0 0 0 0 0 0 0 0 0 0 0 0 0 0 0 0 0 0 0 0 0 0 0 0 0 0 0 0
0 0 0 0 0 0 0 0 0 0 0 0 0 0 0 0 0 0 0 0 0 0 0 0 0 0 0 0 0 0 0 0 0 0 0 0 0 0 0 0 0 0 0
0 0 0 0 0 0 0 0 0 0 0 0 0 0 0 0 0 0 0 0 0 0 0 0 0 0 0 0 0 0 0 0 0 0 0 0 0 0 0 0 0 0 0
Wind_Speed_500mb
15 11 11 16 19 20 21 21 24 26 27 29 29 28 28 28 24 30 25 26 28 32 28 28 29 30 32 34 34 42 39 31 29 31 36 38 36 39 39 42 39 40 36
22 15 13 17 20 23 22 22 24 25 26 27 27 26 28 27 26 29 25 36 33 29 28 31 33 35 31 33 39 38 29 26 27 29 31 39 38 31 36 38 42 41 33
20 16 15 18 20 23 23 21 23 24 26 27 27 28 29 23 27 28 31 29 26 23 30 32 37 33 36 33 36 31 25 25 22 24 32 40 34 30 29 28 28 33 42
14 15 15 15 17 21 22 20 22 24 25 27 26 26 24 26 21 24 22 22 27 19 30 32 26 23 29 33 28 24 20 19 22 21 24 25 29 31 25 22 22 25 27
18 14 12 13 17 19 21 19 20 22 24 25 24 24 23 23 25 22 25 24 16 16 27 26 16 26 26 26 24 20 18 20 18 18 16 17 20 21 22 19 15 17 19
19 12 8 11 14 17 20 18 18 20 23 24 25 25 23 20 21 23 19 18 17 24 22 20 16 26 25 27 22 16 15 17 14 19 18 23 23 23 21 20 19 12 17
15 9 6 9 13 18 22 18 20 21 23 25 26 25 22 20 18 21 18 16 20 19 18 14 17 20 23 22 19 14 11 10 12 14 22 33 29 23 21 18 18 20 18
10 9 7 6 12 18 20 18 18 19 22 23 25 24 22 20 17 17 18 14 20 14 15 14 14 18 19 18 14 10 5 10 10 15 25 25 19 24 22 19 27 25 16
10 9 8 7 12 16 17 16 17 18 20 22 23 24 23 21 18 14 14 14 14 10 9 14 12 17 14 11 9 3 1 4 5 10 13 20 19 20 27 28 19 14 12
9 12 6 5 9 16 17 15 16 17 20 22 24 23 21 19 19 15 11 12 11 6 7 11 8 11 7 2 1 5 6 1 9 8 13 21 15 15 20 18 12 12 16
13 8 3 7 13 16 16 15 16 18 20 23 24 24 24 24 21 17 11 6 7 3 4 7 1 8 8 7 10 9 8 4 3 8 11 22 10 10 10 6 9 13 14
14 8 2 6 12 18 15 15 15 18 21 23 23 23 21 19 18 14 8 3 1 4 7 6 8 7 10 9 13 20 17 13 7 5 8 14 11 15 6 5 7 6 10
14 11 3 7 10 14 16 15 17 19 20 22 23 23 22 19 17 14 11 9 3 3 5 9 13 13 12 11 15 23 24 17 14 11 11 8 11 6 4 2 6 2 12
13 12 5 9 12 13 15 16 17 19 21 24 25 26 26 23 20 15 11 8 7 8 14 15 15 19 17 13 14 17 21 18 14 13 16 12 8 8 1 1 1 4 12
12 15 13 13 14 13 13 16 17 18 20 25 26 27 29 27 25 22 17 14 10 12 17 20 20 22 18 15 13 12 12 16 16 20 22 21 20 17 13 11 5 9 12
16 18 19 16 11 12 12 12 14 19 22 28 29 30 32 34 31 28 25 22 14 14 19 26 23 20 12 14 14 18 21 21 22 21 28 31 27 27 22 21 14 13 10
18 15 19 19 18 18 16 24 26 27 26 28 29 32 38 39 39 34 27 24 23 18 25 30 31 25 22 21 24 24 25 24 23 22 25 28 35 34 34 32 29 23 18
19 20 19 21 24 22 24 26 26 22 25 32 33 34 37 40 44 45 36 27 26 28 24 27 33 35 33 33 33 33 32 35 31 30 28 27 33 35 39 39 32 31 28
24 20 19 22 27 30 33 32 33 32 32 37 39 42 42 41 39 43 42 31 31 33 31 28 33 37 41 43 43 41 42 42 40 37 33 33 30 35 40 37 37 37 36
32 36 33 34 29 31 32 34 37 39 39 38 40 42 44 42 40 40 39 36 32 32 36 36 37 41 44 45 49 50 50 50 51 47 42 40 38 34 40 43 45 46 44
17 21 26 26 27 29 31 32 34 39 40 39 36 40 43 43 41 40 38 36 33 32 33 42 45 48 48 48 50 53 57 60 60 58 54 49 45 41 40 46 51 51 49
17 18 20 24 28 34 32 34 35 39 44 43 40 42 40 39 41 44 44 42 38 37 36 36 43 53 57 55 52 56 55 56 62 62 65 61 55 50 45 44 50 54 54
22 22 24 26 27 32 35 35 37 38 42 45 45 45 39 39 38 37 38 44 46 46 49 48 49 52 56 58 59 54 29 23 34 33 46 64 65 56 50 47 49 53 56
22 10 6 12 19 26 31 31 31 37 43 44 44 43 44 40 42 47 46 45 50 53 57 56 55 55 56 62 61 65 67 74 53 45 43 43 50 54 53 53 50 51 54
24 22 20 16 10 5 6 14 22 27 30 36 40 44 46 48 48 51 51 54 54 55 59 60 62 63 61 61 66 65 69 72 75 84 62 52 59 59 62 60 61 59 57
17 15 14 13 14 16 17 18 20 24 30 35 40 44 46 47 50 53 56 59 62 58 57 63 66 71 71 69 70 70 70 72 69 72 78 85 86 82 80 76 73 70 67
Wind_Direction_500mb
157 144 104 68 52 43 41 38 40 36 32 34 42 61 64 68 64 64 42 49 44 57 49 48 52 55 63 73 76 75 70 63 61 58 53 60 55 58 59 52 50 47 43
160 158 108 63 53 44 41 40 42 37 35 37 52 57 62 63 67 63 56 62 49 53 44 49 51 53 62 72 80 72 64 64 70 66 68 66 60 67 61 66 64 56 56
165 147 99 64 54 45 42 40 40 36 35 37 45 57 55 55 72 70 61 66 53 47 49 53 57 55 73 77 81 69 68 68 73 81 74 63 54 50 57 55 56 62 65
158 138 98 66 52 41 35 37 38 37 38 40 47 55 62 60 62 79 70 71 65 42 56 63 63 72 80 83 87 77 76 79 80 82 68 56 51 44 40 44 54 61 72
149 128 104 67 48 35 28 31 34 37 40 39 40 41 50 64 57 75 63 56 71 53 58 69 60 74 88 97 91 90 86 77 77 53 47 30 10 19 16 16 30 52 57
144 153 116 63 42 30 25 33 35 37 40 38 38 39 42 52 65 69 67 49 68 54 69 67 56 88 103 100 109 108 93 75 64 40 17 14 23 40 23 19 28 38 54
154 163 116 56 33 21 18 30 33 37 39 38 36 38 44 49 67 72 63 49 51 62 63 65 55 93 106 109 109 111 79 68 49 37 37 64 62 58 46 31 12 24 66
169 172 136 73 34 21 22 34 36 39 38 36 36 38 42 44 50 68 65 43 63 52 44 54 65 90 94 100 108 114 84 62 19 45 82 60 31 26 23 357 39 64 69
172 164 129 82 37 24 27 37 40 41 38 36 36 36 36 36 41 50 59 60 66 56 23 36 68 95 98 87 88 59 144 94 52 58 67 59 28 34 40 62 79 66 55
198 151 129 69 44 26 28 32 37 37 35 34 34 33 31 34 35 28 33 74 71 76 2 48 71 94 104 62 335 356 14 79 107 77 72 59 26 34 67 66 55 40 58
170 145 87 8 23 22 27 30 31 35 34 34 30 27 23 21 23 21 29 38 80 97 354 20 106 128 165 208 276 274 291 261 135 128 85 82 28 27 66 64 40 70 78
175 166 118 351 355 5 21 30 33 35 33 31 26 21 18 14 12 14 15 68 216 288 315 283 246 237 219 245 272 282 283 296 285 189 130 92 54 33 90 33 45 68 92
190 189 199 322 337 1 15 22 30 28 28 26 20 15 10 8 5 356 344 334 335 304 312 290 273 275 288 279 267 277 289 301 292 212 162 139 107 37 57 36 133 128 108
199 200 222 278 310 347 357 10 19 16 14 14 11 8 7 1 355 350 338 326 297 270 278 282 280 292 285 268 259 260 278 289 290 237 211 222 206 123 207 272 336 115 111
213 206 220 259 320 346 2 9 10 6 1 2 3 3 1 356 350 338 323 300 280 270 274 274 282 288 282 273 264 257 269 285 282 266 246 230 235 222 177 212 215 179 149
243 247 235 237 264 290 309 332 334 343 349 350 352 352 350 350 348 336 320 300 297 267 268 273 276 284 288 275 263 279 286 288 285 276 268 260 242 227 227 208 199 205 179
252 269 253 248 247 267 293 316 321 330 332 337 339 339 340 335 337 340 323 297 284 275 261 265 270 267 269 272 273 275 279 288 296 289 283 272 258 245 231 225 201 211 199
261 258 262 269 261 269 289 287 283 292 307 314 316 322 325 323 322 328 329 307 286 282 280 264 267 274 270 272 273 274 275 276 284 288 296 287 266 255 240 234 232 220 206
244 248 262 271 266 262 270 278 282 288 298 305 314 314 316 313 311 315 324 317 295 288 287 279 262 266 270 272 273 273 272 272 274 274 279 287 281 262 251 241 231 223 213
259 262 265 272 261 271 271 271 277 282 292 298 302 305 303 299 302 305 314 319 309 295 289 274 268 267 269 271 271 273 271 270 270 267 270 267 275 268 252 244 236 232 228
231 251 269 272 276 281 290 290 289 293 293 295 297 299 300 296 294 296 296 302 308 308 309 287 278 275 276 272 271 275 276 271 269 265 266 263 256 258 253 245 242 240 239
225 249 267 276 278 282 281 284 290 292 294 295 299 305 302 299 297 297 293 290 290 293 300 295 302 290 280 279 277 279 284 282 273 267 265 261 258 254 254 249 245 244 243
251 252 248 250 256 276 286 292 292 292 295 299 306 311 312 309 305 304 301 291 287 289 291 291 291 296 293 285 277 273 283 276 295 283 267 261 260 261 258 256 250 246 245
100 117 210 258 266 265 265 269 284 291 294 301 306 309 309 307 302 302 306 304 294 290 284 286 284 285 286 284 277 271 272 269 275 290 284 281 275 270 264 256 253 250 247
85 80 73 67 56 11 308 283 281 288 291 296 300 303 305 305 304 301 298 295 296 287 283 282 281 280 280 278 279 276 274 270 268 265 273 270 268 269 276 267 260 253 248
82 73 59 36 15 2 352 340 330 322 319 316 315 312 310 306 306 305 305 302 302 297 296 287 282 279 279 276 275 273 271 264 264 264 264 269 273 276 273 267 266 264 259
Wind_Speed_850mb
15 11 11 16 19 20 21 21 24 26 27 29 29 28 28 28 24 30 25 26 28 32 28 28 29 30 32 34 34 42 39 31 29 31 36 38 36 39 39 42 39 40 36
22 15 13 17 20 23 22 22 24 25 26 27 27 26 28 27 26 29 25 36 33 29 28 31 33 35 31 33 39 38 29 26 27 29 31 39 38 31 36 38 42 41 33
20 16 15 18 20 23 23 21 23 24 26 27 27 28 29 23 27 28 31 29 26 23 30 32 37 33 36 33 36 31 25 25 22 24 32 40 34 30 29 28 28 33 42
14 15 15 15 17 21 22 20 22 24 25 27 26 26 24 26 21 24 22 22 27 19 30 32 26 23 29 33 28 24 20 19 22 21 24 25 29 31 25 22 22 25 27
18 14 12 13 17 19 21 19 20 22 24 25 24 24 23 23 25 22 25 24 16 16 27 26 16 26 26 26 24 20 18 20 18 18 16 17 20 21 22 19 15 17 19
19 12 8 11 14 17 20 18 18 20 23 24 25 25 23 20 21 23 19 18 17 24 22 20 16 26 25 27 22 16 15 17 14 19 18 23 23 23 21 20 19 12 17
15 9 6 9 13 18 22 18 20 21 23 25 26 25 22 20 18 21 18 16 20 19 18 14 17 20 23 22 19 14 11 10 12 14 22 33 29 23 21 18 18 20 18
10 9 7 6 12 18 20 18 18 19 22 23 25 24 22 20 17 17 18 14 20 14 15 14 14 18 19 18 14 10 5 10 10 15 25 25 19 24 22 19 27 25 16
10 9 8 7 12 16 17 16 17 18 20 22 23 24 23 21 18 14 14 14 14 10 9 14 12 17 14 11 9 3 1 4 5 10 13 20 19 20 27 28 19 14 12
9 12 6 5 9 16 17 15 16 17 20 22 24 23 21 19 19 15 11 12 11 6 7 11 8 11 7 2 1 5 6 1 9 8 13 21 15 15 20 18 12 12 16
13 8 3 7 13 16 16 15 16 18 20 23 24 24 24 24 21 17 11 6 7 3 4 7 1 8 8 7 10 9 8 4 3 8 11 22 10 10 10 6 9 13 14
14 8 2 6 12 18 15 15 15 18 21 23 23 23 21 19 18 14 8 3 1 4 7 6 8 7 10 9 13 20 17 13 7 5 8 14 11 15 6 5 7 6 10
14 11 3 7 10 14 16 15 17 19 20 22 23 23 22 19 17 14 11 9 3 3 5 9 13 13 12 11 15 23 24 17 14 11 11 8 11 6 4 2 6 2 12
13 12 5 9 12 13 15 16 17 19 21 24 25 26 26 23 20 15 11 8 7 8 14 15 15 19 17 13 14 17 21 18 14 13 16 12 8 8 1 1 1 4 12
12 15 13 13 14 13 13 16 17 18 20 25 26 27 29 27 25 22 17 14 10 12 17 20 20 22 18 15 13 12 12 16 16 20 22 21 20 17 13 11 5 9 12
16 18 19 16 11 12 12 12 14 19 22 28 29 30 32 34 31 28 25 22 14 14 19 26 23 20 12 14 14 18 21 21 22 21 28 31 27 27 22 21 14 13 10
18 15 19 19 18 18 16 24 26 27 26 28 29 32 38 39 39 34 27 24 23 18 25 30 31 25 22 21 24 24 25 24 23 22 25 28 35 34 34 32 29 23 18
19 20 19 21 24 22 24 26 26 22 25 32 33 34 37 40 44 45 36 27 26 28 24 27 33 35 33 33 33 33 32 35 31 30 28 27 33 35 39 39 32 31 28
24 20 19 22 27 30 33 32 33 32 32 37 39 42 42 41 39 43 42 31 31 33 31 28 33 37 41 43 43 41 42 42 40 37 33 33 30 35 40 37 37 37 36
32 36 33 34 29 31 32 34 37 39 39 38 40 42 44 42 40 40 39 36 32 32 36 36 37 41 44 45 49 50 50 50 51 47 42 40 38 34 40 43 45 46 44
17 21 26 26 27 29 31 32 34 39 40 39 36 40 43 43 41 40 38 36 33 32 33 42 45 48 48 48 50 53 57 60 60 58 54 49 45 41 40 46 51 51 49
17 18 20 24 28 34 32 34 35 39 44 43 40 42 40 39 41 44 44 42 38 37 36 36 43 53 57 55 52 56 55 56 62 62 65 61 55 50 45 44 50 54 54
22 22 24 26 27 32 35 35 37 38 42 45 45 45 39 39 38 37 38 44 46 46 49 48 49 52 56 58 59 54 29 23 34 33 46 64 65 56 50 47 49 53 56
22 10 6 12 19 26 31 31 31 37 43 44 44 43 44 40 42 47 46 45 50 53 57 56 55 55 56 62 61 65 67 74 53 45 43 43 50 54 53 53 50 51 54
24 22 20 16 10 5 6 14 22 27 30 36 40 44 46 48 48 51 51 54 54 55 59 60 62 63 61 61 66 65 69 72 75 84 62 52 59 59 62 60 61 59 57
17 15 14 13 14 16 17 18 20 24 30 35 40 44 46 47 50 53 56 59 62 58 57 63 66 71 71 69 70 70 70 72 69 72 78 85 86 82 80 76 73 70 67
Wind_Direction_850mb
157 144 104 68 52 43 41 38 40 36 32 34 42 61 64 68 64 64 42 49 44 57 49 48 52 55 63 73 76 75 70 63 61 58 53 60 55 58 59 52 50 47 43
160 158 108 63 53 44 41 40 42 37 35 37 52 57 62 63 67 63 56 62 49 53 44 49 51 53 62 72 80 72 64 64 70 66 68 66 60 67 61 66 64 56 56
165 147 99 64 54 45 42 40 40 36 35 37 45 57 55 55 72 70 61 66 53 47 49 53 57 55 73 77 81 69 68 68 73 81 74 63 54 50 57 55 56 62 65
158 138 98 66 52 41 35 37 38 37 38 40 47 55 62 60 62 79 70 71 65 42 56 63 63 72 80 83 87 77 76 79 80 82 68 56 51 44 40 44 54 61 72
149 128 104 67 48 35 28 31 34 37 40 39 40 41 50 64 57 75 63 56 71 53 58 69 60 74 88 97 91 90 86 77 77 53 47 30 10 19 16 16 30 52 57
144 153 116 63 42 30 25 33 35 37 40 38 38 39 42 52 65 69 67 49 68 54 69 67 56 88 103 100 109 108 93 75 64 40 17 14 23 40 23 19 28 38 54
154 163 116 56 33 21 18 30 33 37 39 38 36 38 44 49 67 72 63 49 51 62 63 65 55 93 106 109 109 111 79 68 49 37 37 64 62 58 46 31 12 24 66
169 172 136 73 34 21 22 34 36 39 38 36 36 38 42 44 50 68 65 43 63 52 44 54 65 90 94 100 108 114 84 62 19 45 82 60 31 26 23 357 39 64 69
172 164 129 82 37 24 27 37 40 41 38 36 36 36 36 36 41 50 59 60 66 56 23 36 68 95 98 87 88 59 144 94 52 58 67 59 28 34 40 62 79 66 55
198 151 129 69 44 26 28 32 37 37 35 34 34 33 31 34 35 28 33 74 71 76 2 48 71 94 104 62 335 356 14 79 107 77 72 59 26 34 67 66 55 40 58
170 145 87 8 23 22 27 30 31 35 34 34 30 27 23 21 23 21 29 38 80 97 354 20 106 128 165 208 276 274 291 261 135 128 85 82 28 27 66 64 40 70 78
175 166 118 351 355 5 21 30 33 35 33 31 26 21 18 14 12 14 15 68 216 288 315 283 246 237 219 245 272 282 283 296 285 189 130 92 54 33 90 33 45 68 92
190 189 199 322 337 1 15 22 30 28 28 26 20 15 10 8 5 356 344 334 335 304 312 290 273 275 288 279 267 277 289 301 292 212 162 139 107 37 57 36 133 128 108
199 200 222 278 310 347 357 10 19 16 14 14 11 8 7 1 355 350 338 326 297 270 278 282 280 292 285 268 259 260 278 289 290 237 211 222 206 123 207 272 336 115 111
213 206 220 259 320 346 2 9 10 6 1 2 3 3 1 356 350 338 323 300 280 270 274 274 282 288 282 273 264 257 269 285 282 266 246 230 235 222 177 212 215 179 149
243 247 235 237 264 290 309 332 334 343 349 350 352 352 350 350 348 336 320 300 297 267 268 273 276 284 288 275 263 279 286 288 285 276 268 260 242 227 227 208 199 205 179
252 269 253 248 247 267 293 316 321 330 332 337 339 339 340 335 337 340 323 297 284 275 261 265 270 267 269 272 273 275 279 288 296 289 283 272 258 245 231 225 201 211 199
261 258 262 269 261 269 289 287 283 292 307 314 316 322 325 323 322 328 329 307 286 282 280 264 267 274 270 272 273 274 275 276 284 288 296 287 266 255 240 234 232 220 206
244 248 262 271 266 262 270 278 282 288 298 305 314 314 316 313 311 315 324 317 295 288 287 279 262 266 270 272 273 273 272 272 274 274 279 287 281 262 251 241 231 223 213
259 262 265 272 261 271 271 271 277 282 292 298 302 305 303 299 302 305 314 319 309 295 289 274 268 267 269 271 271 273 271 270 270 267 270 267 275 268 252 244 236 232 228
231 251 269 272 276 281 290 290 289 293 293 295 297 299 300 296 294 296 296 302 308 308 309 287 278 275 276 272 271 275 276 271 269 265 266 263 256 258 253 245 242 240 239
225 249 267 276 278 282 281 284 290 292 294 295 299 305 302 299 297 297 293 290 290 293 300 295 302 290 280 279 277 279 284 282 273 267 265 261 258 254 254 249 245 244 243
251 252 248 250 256 276 286 292 292 292 295 299 306 311 312 309 305 304 301 291 287 289 291 291 291 296 293 285 277 273 283 276 295 283 267 261 260 261 258 256 250 246 245
100 117 210 258 266 265 265 269 284 291 294 301 306 309 309 307 302 302 306 304 294 290 284 286 284 285 286 284 277 271 272 269 275 290 284 281 275 270 264 256 253 250 247
85 80 73 67 56 11 308 283 281 288 291 296 300 303 305 305 304 301 298 295 296 287 283 282 281 280 280 278 279 276 274 270 268 265 273 270 268 269 276 267 260 253 248
82 73 59 36 15 2 352 340 330 322 319 316 315 312 310 306 306 305 305 302 302 297 296 287 282 279 279 276 275 273 271 264 264 264 264 269 273 276 273 267 266 264 259